Regional Weather Roundup
Issued by NWS

Home | Current Version | Previous Version | Text Only | Print | Product List | Glossary On
Versions: 1 2 3 4 5 6 7 8 9 10 11 12 13 14 15 16 17 18 19 20 21 22 23 24 25 26 27 28 29 30 31 32 33 34 35 36 37 38 39 40 41 42 43 44 45 46 47 48 49 50
000
ASUS43 KBIS 310020
RWRND

NORTH DAKOTA REGIONAL WEATHER ROUNDUP
NATIONAL WEATHER SERVICE BISMARCK ND
700 PM CDT SAT AUG 30 2014

NOTE: "FAIR" INDICATES FEW OR NO CLOUDS BELOW 12,000 FEET WITH NO
SIGNIFICANT WEATHER AND/OR OBSTRUCTIONS TO VISIBILITY.


NDZ001>003-009>011-017-310100-
NORTHWEST NORTH DAKOTA

CITY           SKY/WX    TMP DP  RH WIND       PRES   REMARKS
WILLISTON      CLOUDY    64  61  90 N13       29.69R
6HR MIN TEMP:  64; 6HR MAX TEMP:  75; 6HR PCP:  0.12;

MINOT AFB      PTSUNNY   70  54  57 SE10      29.71F
$$

NDZ018>021-031>035-040>046-310100-
SOUTHWEST NORTH DAKOTA

CITY           SKY/WX    TMP DP  RH WIND       PRES   REMARKS
BISMARCK       MOSUNNY   74  56  53 SE16      29.73F
6HR MIN TEMP:  69; 6HR MAX TEMP:  76;

DICKINSON      PTSUNNY   71  58  63 SE12      29.69F
GARRISON         N/A     69  57  65 SE7       29.73S
6HR MIN TEMP:  68; 6HR MAX TEMP:  74;

HETTINGER ARPT MOSUNNY   75  59  57 E13       29.71F
$$

NDZ004>008-012>016-024-026-027-054-310100-
NORTHEAST NORTH DAKOTA

CITY           SKY/WX    TMP DP  RH WIND       PRES   REMARKS
GRAND FORKS    MOSUNNY   73  54  51 SE8       29.80F
GRND FRKS AFB  SUNNY     71  54  55 S9        29.81F
DEVILS LAKE    MOSUNNY   70  54  56 SE12      29.76F
$$

NDZ022-023-025-028>030-036>039-047>053-310100-
SOUTHEAST NORTH DAKOTA

CITY           SKY/WX    TMP DP  RH WIND       PRES   REMARKS
FARGO          CLOUDY    69  59  70 SE7       29.82S
6HR MIN TEMP:  67; 6HR MAX TEMP:  73;

JAMESTOWN      MOSUNNY   69  56  62 SE8       29.79F
$$



USA.gov is the U.S. government's official web portal to all federal, state and local government web resources and services.